STARLINK-1134, 45048

Orbit data source: Space-Track

STARLINK-1134, 45048 is a payload satellite owned by SpaceX/Seattle (US) in LEO that was launched on Wed, 29 Jan 2020 UTC via an FALCON 9 launch vehicle from the Air Force Eastern Test Range (AFETR). Payload-class satellites include a variety of spacecraft equipped with specific instruments for various scientific and technological missions. These include communications satellites like Starlink; space stations such as the ISS; scientific satellites like the Hubble; Earth observation satellites from companies like Planet Labs, Umbra, and HawkEye 360; GPS; miniature CubeSats for education and research; and military/defense satellites.

Loading next visibility...
Identifier
45048, 2020-006E
Orbit
LEO
Country
Flag of USUS
Related business
Manufacturer
SpaceX/Seattle
Mission
Partially operational Commercial Communications
Bus & Motor
STARLINK, Unknown motor
Mass
260 kg wet, ~248 kg dry
Launch date (UTC)
2020-01-29 (6 years ago)
Launch vehicle
FALCON 9
Launch site
Air Force Eastern Test Range (AFETR)
Object type
Payload
Rocket body
Debris
Shape & HBR
Box + 1 Pan, 10.1 m
Radar Cross Section
13.562 m², Large (>1 m²)

Expand to show TLE details & history
Last TLE update: 2 weeks ago

TLE from 2 weeks ago
0 STARLINK-1134
1 45048U 20006E   25297.87285069  .00016521  00000-0  63194-3 0  9990
2 45048  53.0401 155.6330 0012282 116.8822 243.3433 15.26667851316281
Epoch: 2025-10-24T20:56Z
TLE epoch observation values (Epoch: 2025-10-24T20:56:54.299Z)
Latitude
0.00002°
Longitude
167.89525°
Altitude
490.458 km
Speed
7.619 km/s
True Right ascension
10h 22m 31s
True Declination
0° 00' 00"
Sunlit
Object was in daylight at epoch
Visualization orbit readout
Latitude
Unknown
Longitude
Unknown
Altitude
Unknown
Speed
Unknown
Apparent Right ascension
Unknown
Apparent Declination
Unknown
Sunlit
N/A
Visualization observer readout
Local Sidereal Time
19:21:02
Azimuth
Unknown
Elevation
Unknown
Doppler factor
Unknown
Orbital elements
Apogee altitude
494.488 km
Perigee altitude
477.627 km
Semi-major axis
6,864.194 km
Eccentricity
0.00123
Inclination
53.0401°
RAAN
155.633°
Arg. of periapsis
116.8822°
True anomaly
243.2176°
Mean anomaly
243.3433°
Eccentric anomaly
243.28044°
Mean motion
3.81644 °/min
Orbital period
94.33 mins
BSTAR
0.00063194
Loading maneuver chart data...
Computing Atmospheric mass density...
Loading historical data...
Loading historical data...
Loading historical data...
Loading historical data...
Loading historical data...
Loading historical data...
Loading historical data...

Documentation

Showing up to 5 results
|